| time (UTC) | temp C | wind direction | speed KPH | gust KPH | rain 1hr cm | rain 24hr cm | rain mn cm | humidity % | barometer mb |
| 20260505100004 | 22 | 53 | 1.6 | 1.6 | 0.00 | 0.00 | 0.00 | 79 | 1014.2 |
| 20260505095004 | 22 | 51 | 3.2 | 8.0 | 0.00 | 0.00 | 0.00 | 78 | 1014.1 |
| 20260505094504 | 22 | 46 | 1.6 | 4.8 | 0.00 | 0.00 | 0.00 | 78 | 1014.0 |
| 20260505093504 | 22 | 43 | 3.2 | 4.8 | 0.00 | 0.00 | 0.00 | 78 | 1013.9 |
| 20260505093004 | 22 | 111 | 3.2 | 4.8 | 0.00 | 0.00 | 0.00 | 78 | 1013.8 |
| 20260505092004 | 22 | 83 | 1.6 | 4.8 | 0.00 | 0.00 | 0.00 | 78 | 1013.8 |
| 20260505091503 | 22 | 64 | 1.6 | 4.8 | 0.00 | 0.00 | 0.00 | 78 | 1013.7 |
| 20260505090504 | 22 | 67 | 1.6 | 4.8 | 0.00 | 0.00 | 0.00 | 77 | 1013.6 |
| 20260505090003 | 22 | 106 | 0.0 | 4.8 | 0.00 | 0.00 | 0.00 | 77 | 1013.6 |
| 20260505085503 | 22 | 105 | 1.6 | 8.0 | 0.00 | 0.00 | 0.00 | 77 | 1013.6 |
| 20260505084503 | 22 | 102 | 3.2 | 8.0 | 0.00 | 0.00 | 0.00 | 77 | 1013.7 |
| 20260505084004 | 22 | 60 | 3.2 | 4.8 | 0.00 | 0.00 | 0.00 | 77 | 1013.7 |
| 20260505083504 | 22 | 69 | 3.2 | 8.0 | 0.00 | 0.00 | 0.00 | 76 | 1013.8 |
| 20260505083005 | 22 | 46 | 1.6 | 4.8 | 0.00 | 0.00 | 0.00 | 76 | 1013.7 |
| 20260505082506 | 22 | 61 | 1.6 | 4.8 | 0.00 | 0.00 | 0.00 | 76 | 1013.7 |
| 20260505082004 | 22 | 19 | 1.6 | 4.8 | 0.00 | 0.00 | 0.00 | 76 | 1013.6 |
| 20260505081504 | 22 | 72 | 1.6 | 4.8 | 0.00 | 0.00 | 0.00 | 76 | 1013.6 |
| 20260505081004 | 22 | 61 | 1.6 | 4.8 | 0.00 | 0.00 | 0.00 | 76 | 1013.6 |
| 20260505080504 | 22 | 102 | 3.2 | 9.7 | 0.00 | 0.00 | 0.00 | 76 | 1013.6 |
| 20260505080004 | 22 | 37 | 1.6 | 3.2 | 0.00 | 0.00 | 0.00 | 75 | 1013.7 |
| 20260505075503 | 22 | 92 | 3.2 | 8.0 | 0.00 | 0.00 | 0.00 | 75 | 1013.7 |
| 20260505074504 | 22 | 110 | 3.2 | 9.7 | 0.00 | 0.00 | 0.00 | 75 | 1014.0 |
| 20260505073504 | 23 | 59 | 3.2 | 4.8 | 0.00 | 0.00 | 0.00 | 75 | 1014.0 |
| 20260505073004 | 23 | 101 | 1.6 | 3.2 | 0.00 | 0.00 | 0.00 | 74 | 1014.0 |
| 20260505072504 | 23 | 107 | 1.6 | 8.0 | 0.00 | 0.00 | 0.00 | 74 | 1014.1 |
| 20260505072004 | 23 | 139 | 1.6 | 8.0 | 0.00 | 0.00 | 0.00 | 74 | 1014.1 |
| 20260505071004 | 23 | 91 | 1.6 | 4.8 | 0.00 | 0.00 | 0.00 | 74 | 1013.8 |
| 20260505070503 | 23 | 62 | 3.2 | 4.8 | 0.00 | 0.00 | 0.00 | 74 | 1013.9 |
| 20260505070004 | 23 | 83 | 0.0 | 4.8 | 0.00 | 0.00 | 0.00 | 74 | 1013.9 |
| 20260505065504 | 23 | 73 | 3.2 | 9.7 | 0.00 | 0.00 | 0.00 | 73 | 1014.0 |
| 20260505065004 | 23 | 45 | 1.6 | 3.2 | 0.00 | 0.00 | 0.00 | 73 | 1014.1 |
| 20260505064504 | 23 | 78 | 1.6 | 8.0 | 0.00 | 0.00 | 0.00 | 73 | 1014.1 |
| 20260505064004 | 23 | 64 | 3.2 | 9.7 | 0.00 | 0.00 | 0.00 | 73 | 1014.1 |
| 20260505063504 | 23 | 59 | 3.2 | 9.7 | 0.00 | 0.00 | 0.00 | 73 | 1014.1 |
| 20260505063004 | 23 | 64 | 1.6 | 8.0 | 0.00 | 0.00 | 0.00 | 73 | 1014.4 |
| 20260505062504 | 23 | 156 | 3.2 | 4.8 | 0.00 | 0.00 | 0.00 | 73 | 1014.5 |
| 20260505061004 | 23 | 195 | 3.2 | 11.3 | 0.00 | 0.00 | 0.00 | 72 | 1014.8 |
| 20260505060504 | 23 | 60 | 3.2 | 11.3 | 0.00 | 0.00 | 0.00 | 72 | 1014.9 |
| 20260505060003 | 23 | 106 | 1.6 | 3.2 | 0.00 | 0.00 | 0.00 | 72 | 1014.9 |
| 20260505055504 | 23 | 104 | 3.2 | 9.7 | 0.00 | 0.00 | 0.00 | 72 | 1015.0 |
| 20260505055003 | 23 | 61 | 3.2 | 9.7 | 0.00 | 0.00 | 0.00 | 72 | 1014.7 |
| 20260505054003 | 23 | 62 | 3.2 | 9.7 | 0.00 | 0.00 | 0.00 | 72 | 1014.9 |
| 20260505053504 | 23 | 95 | 3.2 | 9.7 | 0.00 | 0.00 | 0.00 | 71 | 1014.9 |
| 20260505053004 | 23 | 68 | 1.6 | 4.8 | 0.00 | 0.00 | 0.00 | 71 | 1015.0 |
| 20260505052504 | 23 | 66 | 3.2 | 8.0 | 0.00 | 0.00 | 0.00 | 71 | 1015.1 |
| 20260505052004 | 23 | 56 | 1.6 | 8.0 | 0.00 | 0.00 | 0.00 | 71 | 1015.1 |
| 20260505051004 | 23 | 51 | 3.2 | 8.0 | 0.00 | 0.00 | 0.00 | 70 | 1015.1 |
| 20260505050503 | 24 | 55 | 1.6 | 8.0 | 0.00 | 0.00 | 0.00 | 70 | 1015.1 |
| 20260505041503 | 24 | 97 | 0.0 | 3.2 | 0.00 | 0.00 | 0.00 | 68 | 1015.5 |
| 20260505041004 | 24 | 121 | 1.6 | 4.8 | 0.00 | 0.00 | 0.00 | 68 | 1015.3 |
| 20260505040504 | 24 | 68 | 3.2 | 4.8 | 0.00 | 0.00 | 0.00 | 68 | 1015.5 |
| 20260505035503 | 25 | 71 | 1.6 | 4.8 | 0.00 | 0.00 | 0.00 | 68 | 1015.6 |
| 20260505035004 | 25 | 61 | 1.6 | 8.0 | 0.00 | 0.00 | 0.00 | 67 | 1015.7 |
| 20260505034504 | 25 | 85 | 3.2 | 4.8 | 0.00 | 0.00 | 0.00 | 67 | 1015.8 |
| 20260505034004 | 25 | 101 | 3.2 | 9.7 | 0.00 | 0.00 | 0.00 | 67 | 1015.8 |
| 20260505033503 | 25 | 48 | 3.2 | 8.0 | 0.00 | 0.00 | 0.00 | 67 | 1015.8 |
| 20260505033004 | 25 | 61 | 3.2 | 9.7 | 0.00 | 0.00 | 0.00 | 67 | 1015.7 |
| 20260505032504 | 25 | 136 | 3.2 | 9.7 | 0.00 | 0.00 | 0.00 | 66 | 1015.8 |
| 20260505032003 | 25 | 40 | 1.6 | 9.7 | 0.00 | 0.00 | 0.00 | 66 | 1015.7 |
| 20260505031504 | 25 | 59 | 3.2 | 8.0 | 0.00 | 0.00 | 0.00 | 66 | 1015.8 |
| 20260505031004 | 25 | 94 | 3.2 | 8.0 | 0.00 | 0.00 | 0.00 | 66 | 1016.0 |
| 20260505030004 | 25 | 53 | 1.6 | 3.2 | 0.00 | 0.00 | 0.00 | 66 | 1015.9 |
| 20260505025504 | 25 | 66 | 1.6 | 12.9 | 0.00 | 0.00 | 0.00 | 65 | 1015.9 |
| 20260505025004 | 25 | 69 | 1.6 | 4.8 | 0.00 | 0.00 | 0.00 | 65 | 1015.8 |
| 20260505024504 | 26 | 99 | 1.6 | 4.8 | 0.00 | 0.00 | 0.00 | 65 | 1015.7 |
| 20260505024004 | 26 | 85 | 3.2 | 9.7 | 0.00 | 0.00 | 0.00 | 64 | 1015.6 |
| 20260505023503 | 26 | 108 | 4.8 | 11.3 | 0.00 | 0.00 | 0.00 | 64 | 1015.5 |
| 20260505023004 | 26 | 89 | 3.2 | 11.3 | 0.00 | 0.00 | 0.00 | 64 | 1015.4 |
| 20260505022504 | 26 | 103 | 3.2 | 11.3 | 0.00 | 0.00 | 0.00 | 64 | 1015.3 |
| 20260505022004 | 26 | 55 | 4.8 | 14.5 | 0.00 | 0.00 | 0.00 | 64 | 1015.4 |
| 20260505021504 | 26 | 66 | 1.6 | 11.3 | 0.00 | 0.00 | 0.00 | 63 | 1015.4 |
| 20260505020504 | 26 | 76 | 0.0 | 8.0 | 0.00 | 0.00 | 0.00 | 63 | 1015.3 |
| 20260505020004 | 26 | 45 | 1.6 | 4.8 | 0.00 | 0.00 | 0.00 | 63 | 1015.3 |
| 20260505015504 | 26 | 71 | 4.8 | 12.9 | 0.00 | 0.00 | 0.00 | 63 | 1015.3 |
| 20260505015004 | 26 | 87 | 3.2 | 11.3 | 0.00 | 0.00 | 0.00 | 62 | 1015.1 |
| 20260505014503 | 26 | 104 | 1.6 | 12.9 | 0.00 | 0.00 | 0.00 | 62 | 1015.1 |
| 20260505014004 | 26 | 77 | 4.8 | 11.3 | 0.00 | 0.00 | 0.00 | 62 | 1015.1 |
| 20260505013504 | 26 | 56 | 4.8 | 14.5 | 0.00 | 0.00 | 0.00 | 62 | 1015.1 |
| 20260505013003 | 26 | 62 | 1.6 | 9.7 | 0.00 | 0.00 | 0.00 | 62 | 1015.0 |
| 20260505012504 | 26 | 289 | 3.2 | 16.1 | 0.00 | 0.00 | 0.00 | 61 | 1014.8 |
| 20260505010004 | 27 | 99 | 3.2 | 14.5 | 0.00 | 0.00 | 0.00 | 60 | 1014.5 |
| 20260505005504 | 27 | 108 | 3.2 | 11.3 | 0.00 | 0.00 | 0.00 | 59 | 1014.5 |
| 20260505005004 | 27 | 113 | 3.2 | 12.9 | 0.00 | 0.00 | 0.00 | 59 | 1014.4 |
| 20260505004504 | 27 | 103 | 4.8 | 11.3 | 0.00 | 0.00 | 0.00 | 58 | 1014.4 |
| 20260505004004 | 27 | 103 | 3.2 | 11.3 | 0.00 | 0.00 | 0.00 | 58 | 1014.2 |
| 20260505003503 | 27 | 69 | 4.8 | 14.5 | 0.00 | 0.00 | 0.00 | 58 | 1014.1 |
| 20260505003006 | 27 | 56 | 4.8 | 14.5 | 0.00 | 0.00 | 0.00 | 57 | 1014.0 |
| 20260505002004 | 27 | 63 | 3.2 | 11.3 | 0.00 | 0.00 | 0.00 | 56 | 1014.1 |
| 20260505001503 | 27 | 79 | 8.0 | 12.9 | 0.00 | 0.00 | 0.00 | 56 | 1013.9 |
| 20260505000504 | 27 | 147 | 1.6 | 4.8 | 0.00 | 0.00 | 0.00 | 56 | 1013.5 |
| 20260505000004 | 27 | 64 | 6.4 | 14.5 | 0.00 | 0.00 | 0.00 | 55 | 1013.4 |
| 20260504235505 | 27 | 50 | 3.2 | 9.7 | 0.00 | 0.00 | 0.00 | 55 | 1013.3 |
| 20260504234504 | 28 | 320 | 1.6 | 9.7 | 0.00 | 0.00 | 0.00 | 54 | 1013.0 |
| 20260504234003 | 28 | 49 | 4.8 | 12.9 | 0.00 | 0.00 | 0.00 | 54 | 1013.0 |
| 20260504233503 | 28 | 54 | 1.6 | 8.0 | 0.00 | 0.00 | 0.00 | 53 | 1013.0 |
| 20260504233004 | 28 | 56 | 4.8 | 12.9 | 0.00 | 0.00 | 0.00 | 53 | 1012.8 |
| 20260504232504 | 28 | 81 | 3.2 | 12.9 | 0.00 | 0.00 | 0.00 | 52 | 1012.8 |
| 20260504232003 | 28 | 69 | 3.2 | 11.3 | 0.00 | 0.00 | 0.00 | 51 | 1012.6 |
| 20260504231503 | 28 | 109 | 1.6 | 9.7 | 0.00 | 0.00 | 0.00 | 51 | 1012.6 |
| 20260504231004 | 28 | 101 | 3.2 | 14.5 | 0.00 | 0.00 | 0.00 | 50 | 1012.5 |
| 20260504230504 | 28 | 65 | 3.2 | 8.0 | 0.00 | 0.00 | 0.00 | 49 | 1012.4 |
| 20260504224503 | 29 | 107 | 3.2 | 9.7 | 0.00 | 0.00 | 0.00 | 48 | 1012.0 |
| 20260504224004 | 29 | 119 | 3.2 | 19.3 | 0.00 | 0.00 | 0.00 | 48 | 1012.0 |
| 20260504223504 | 29 | 79 | 8.0 | 14.5 | 0.00 | 0.00 | 0.00 | 48 | 1012.1 |
| 20260504222004 | 29 | 68 | 3.2 | 11.3 | 0.00 | 0.00 | 0.00 | 47 | 1012.1 |
| 20260504221504 | 29 | 40 | 4.8 | 12.9 | 0.00 | 0.00 | 0.00 | 47 | 1012.2 |
| 20260504221004 | 29 | 342 | 3.2 | 11.3 | 0.00 | 0.00 | 0.00 | 47 | 1012.2 |
| 20260504220504 | 29 | 15 | 3.2 | 12.9 | 0.00 | 0.00 | 0.00 | 46 | 1012.2 |
| 20260504220004 | 29 | 125 | 3.2 | 8.0 | 0.00 | 0.00 | 0.00 | 46 | 1012.2 |
| 20260504215503 | 29 | 75 | 4.8 | 11.3 | 0.00 | 0.00 | 0.00 | 46 | 1012.3 |
| 20260504215004 | 30 | 56 | 3.2 | 9.7 | 0.00 | 0.00 | 0.00 | 46 | 1012.1 |
| 20260504214504 | 30 | 59 | 4.8 | 12.9 | 0.00 | 0.00 | 0.00 | 45 | 1012.2 |
| 20260504214004 | 30 | 92 | 8.0 | 14.5 | 0.00 | 0.00 | 0.00 | 46 | 1012.1 |
| 20260504213504 | 30 | 105 | 6.4 | 14.5 | 0.00 | 0.00 | 0.00 | 46 | 1012.0 |
| 20260504213004 | 30 | 131 | 4.8 | 12.9 | 0.00 | 0.00 | 0.00 | 45 | 1012.0 |
| 20260504212504 | 30 | 21 | 3.2 | 11.3 | 0.00 | 0.00 | 0.00 | 45 | 1012.1 |
| 20260504212004 | 30 | 32 | 3.2 | 8.0 | 0.00 | 0.00 | 0.00 | 45 | 1012.1 |
| 20260504211003 | 30 | 228 | 1.6 | 9.7 | 0.00 | 0.00 | 0.00 | 46 | 1012.2 |
| 20260504210503 | 30 | 65 | 1.6 | 9.7 | 0.00 | 0.00 | 0.00 | 45 | 1012.1 |
| 20260504210004 | 30 | 83 | 3.2 | 12.9 | 0.00 | 0.00 | 0.00 | 44 | 1012.2 |
| 20260504205503 | 30 | 102 | 4.8 | 19.3 | 0.00 | 0.00 | 0.00 | 44 | 1012.2 |
| 20260504205004 | 30 | 113 | 3.2 | 8.0 | 0.00 | 0.00 | 0.00 | 44 | 1012.2 |
| 20260504204504 | 30 | 30 | 4.8 | 12.9 | 0.00 | 0.00 | 0.00 | 44 | 1012.3 |
| 20260504204004 | 30 | 34 | 4.8 | 12.9 | 0.00 | 0.00 | 0.00 | 44 | 1012.2 |
| 20260504203504 | 30 | 95 | 3.2 | 9.7 | 0.00 | 0.00 | 0.00 | 44 | 1012.3 |
| 20260504203004 | 30 | 47 | 4.8 | 14.5 | 0.00 | 0.00 | 0.00 | 43 | 1012.4 |
| 20260504202503 | 30 | 176 | 3.2 | 9.7 | 0.00 | 0.00 | 0.00 | 42 | 1012.4 |
| 20260504202004 | 30 | 44 | 4.8 | 11.3 | 0.00 | 0.00 | 0.00 | 42 | 1012.4 |
| 20260504201503 | 30 | 81 | 6.4 | 11.3 | 0.00 | 0.00 | 0.00 | 42 | 1012.4 |
| 20260504201004 | 30 | 117 | 4.8 | 11.3 | 0.00 | 0.00 | 0.00 | 42 | 1012.4 |
| 20260504200504 | 30 | 35 | 4.8 | 14.5 | 0.00 | 0.00 | 0.00 | 42 | 1012.5 |
| 20260504200004 | 30 | 61 | 4.8 | 12.9 | 0.00 | 0.00 | 0.00 | 43 | 1012.6 |
| 20260504195503 | 30 | 76 | 4.8 | 11.3 | 0.00 | 0.00 | 0.00 | 43 | 1012.7 |
| 20260504194504 | 30 | 36 | 3.2 | 19.3 | 0.00 | 0.00 | 0.00 | 43 | 1012.8 |
| 20260504194004 | 30 | 94 | 3.2 | 11.3 | 0.00 | 0.00 | 0.00 | 43 | 1012.8 |
| 20260504193503 | 30 | 47 | 1.6 | 9.7 | 0.00 | 0.00 | 0.00 | 42 | 1013.0 |
| 20260504193004 | 30 | 106 | 4.8 | 11.3 | 0.00 | 0.00 | 0.00 | 42 | 1013.0 |
| 20260504192504 | 30 | 43 | 8.0 | 14.5 | 0.00 | 0.00 | 0.00 | 43 | 1013.0 |
| 20260504191504 | 30 | 62 | 4.8 | 11.3 | 0.00 | 0.00 | 0.00 | 44 | 1013.0 |
| 20260504191004 | 30 | 76 | 4.8 | 14.5 | 0.00 | 0.00 | 0.00 | 44 | 1013.1 |
| 20260504190504 | 30 | 39 | 6.4 | 20.9 | 0.00 | 0.00 | 0.00 | 45 | 1013.3 |
| 20260504190004 | 30 | 48 | 3.2 | 14.5 | 0.00 | 0.00 | 0.00 | 44 | 1013.3 |
| 20260504185504 | 30 | 116 | 3.2 | 11.3 | 0.00 | 0.00 | 0.00 | 44 | 1013.4 |
| 20260504185003 | 29 | 51 | 1.6 | 11.3 | 0.00 | 0.00 | 0.00 | 43 | 1013.6 |
| 20260504184503 | 30 | 94 | 4.8 | 12.9 | 0.00 | 0.00 | 0.00 | 43 | 1013.8 |
| 20260504184004 | 29 | 63 | 3.2 | 16.1 | 0.00 | 0.00 | 0.00 | 45 | 1013.8 |
| 20260504183503 | 30 | 49 | 4.8 | 14.5 | 0.00 | 0.00 | 0.00 | 44 | 1013.9 |
| 20260504183004 | 30 | 30 | 8.0 | 16.1 | 0.00 | 0.00 | 0.00 | 44 | 1013.9 |
| 20260504182504 | 30 | 130 | 4.8 | 9.7 | 0.00 | 0.00 | 0.00 | 42 | 1013.9 |
| 20260504182004 | 30 | 128 | 4.8 | 11.3 | 0.00 | 0.00 | 0.00 | 43 | 1014.1 |
| 20260504181504 | 30 | 24 | 4.8 | 19.3 | 0.00 | 0.00 | 0.00 | 44 | 1014.1 |
| 20260504181004 | 30 | 5 | 6.4 | 11.3 | 0.00 | 0.00 | 0.00 | 43 | 1014.4 |
| 20260504180504 | 30 | 31 | 8.0 | 14.5 | 0.00 | 0.00 | 0.00 | 44 | 1014.4 |
| 20260504180004 | 29 | 102 | 1.6 | 12.9 | 0.00 | 0.00 | 0.00 | 44 | 1014.4 |
| 20260504175004 | 30 | 31 | 6.4 | 14.5 | 0.00 | 0.00 | 0.00 | 44 | 1014.4 |
| 20260504174504 | 29 | 118 | 3.2 | 11.3 | 0.00 | 0.00 | 0.00 | 45 | 1014.5 |
| 20260504174003 | 29 | 78 | 3.2 | 14.5 | 0.00 | 0.00 | 0.00 | 44 | 1014.6 |
| 20260504173503 | 29 | 85 | 4.8 | 12.9 | 0.00 | 0.00 | 0.00 | 45 | 1014.7 |
| 20260504173004 | 29 | 18 | 4.8 | 20.9 | 0.00 | 0.00 | 0.00 | 45 | 1014.8 |
| 20260504172004 | 29 | 32 | 4.8 | 14.5 | 0.00 | 0.00 | 0.00 | 44 | 1014.7 |
| 20260504171004 | 29 | 68 | 8.0 | 19.3 | 0.00 | 0.00 | 0.00 | 44 | 1014.8 |
| 20260504170504 | 29 | 65 | 6.4 | 16.1 | 0.00 | 0.00 | 0.00 | 46 | 1014.9 |
| 20260504151003 | 27 | 47 | 4.8 | 12.9 | 0.00 | 0.00 | 0.00 | 52 | 1016.0 |
| 20260504150503 | 27 | 65 | 3.2 | 14.5 | 0.00 | 0.00 | 0.00 | 53 | 1016.0 |
| 20260504140504 | 26 | 53 | 4.8 | 16.1 | 0.00 | 0.00 | 0.00 | 60 | 1015.9 |
| 20260504130504 | 24 | 52 | 4.8 | 20.9 | 0.00 | 0.00 | 0.00 | 66 | 1015.8 |
| 20260504110504 | 21 | 57 | 1.6 | 8.0 | 0.00 | 0.00 | 0.00 | 78 | 1015.7 |
| 20260504100504 | 21 | 21 | 1.6 | 4.8 | 0.00 | 0.00 | 0.00 | 78 | 1015.0 |